[[{"header":{"parameterUnit":"m.s-1","parameterCategory":1,"la1":30.2991,"la2":30.254,"lo1":-89.0895,"lo2":-89.0444,"dy":0.0017,"dx":0.0017,"nx":28,"ny":28,"refTime":"2025-01-19T03:00:00:Z","depth":0,"parameterNumber":2,"parameterNumberName":"U-component_of_WINDS"},"data":[0,0,0,0,0,0,0,0,0,0,0,0,0,0,0,0,0,0,0,0,0,0,0,0,0,0,0,0,0,0,0,0,0,0,0,0,0,0,0,0,0,0,0,0,0,0,0,0,0,0,0,0,0,0,0,0,0,0,2.9236,2.9235,0,2.9174,2.9174,2.9173,2.9071,2.9069,2.9067,2.9066,2.9004,2.9004,2.9004,0,0,0,0,0,0,0,0,0,0,0,0,0,2.9267,2.9267,2.9236,2.9235,2.9234,2.9174,2.9174,2.9173,2.9071,2.9069,2.9067,2.9065,2.9004,2.9004,2.9004,0,0,0,0,0,0,0,0,0,0,0,0,0,2.9235,2.9267,2.9236,2.9176,2.917,2.9175,2.9174,2.9173,2.9072,2.9069,2.9066,2.9064,2.9004,2.9004,2.9004,2.9062,0,0,2.9005,2.9005,0,0,0,0,0,0,0,0,2.9237,2.9234,2.9186,2.918,2.9174,2.9127,2.9162,2.9136,2.9073,2.9109,2.9065,2.9062,2.9048,2.9044,2.9039,2.9059,2.9057,2.9005,2.9005,2.9005,2.9005,0,0,0,0,0,0,0,2.9239,2.9236,2.9211,2.9185,2.9178,2.9153,2.9146,2.9157,2.9095,2.9106,2.9098,2.9092,2.9044,2.9039,2.9037,2.9056,2.9005,2.9005,2.9005,2.9005,2.9123,2.9126,0,0,0,0,0,0,2.925,2.9238,2.9213,2.921,2.9199,2.9155,2.9147,2.9145,2.9095,2.9084,2.9095,2.9088,2.904,2.9036,2.9034,2.9099,2.9005,2.9005,2.9006,2.912,2.9124,2.9127,0,0,0,0,0,0,2.9251,2.9248,2.9216,2.9222,2.9216,2.9158,2.9157,2.9145,2.914,2.9086,2.9075,2.9101,2.9038,2.9034,2.9056,2.9096,2.9006,2.9006,2.9116,2.9121,2.9125,2.923,0,0,0,0,0,0,2.9252,2.9249,2.927,2.9223,2.9216,2.9239,2.9159,2.9146,2.9141,2.9131,2.9089,2.908,2.9035,2.9057,2.9057,2.9094,2.9006,2.9113,2.9118,2.9124,2.9223,2.9238,2.9251,0,0,0,0,0,2.9254,2.9302,2.9272,2.9269,2.924,2.9241,2.9237,2.9184,2.9144,2.9165,2.9131,2.9081,2.9092,2.906,2.9059,2.9097,2.911,2.9117,2.9123,2.9217,2.9235,2.925,0,0,0,0,0,0,2.9355,2.9295,2.926,2.9295,2.9274,2.9224,2.9248,2.9205,2.9195,2.9187,2.9122,2.9114,2.9145,2.9123,2.9089,2.9152,2.9093,2.91,2.9165,2.9181,2.9195,2.9199,2.9006,0,0,0,0,0,2.9382,2.9387,2.9334,2.9369,2.9361,2.9307,2.9305,2.9267,2.9242,2.9233,2.92,2.9179,2.9178,2.9178,2.9174,2.922,2.921,2.9246,2.926,2.9271,2.9278,2.9302,2.9318,2.9149,2.9149,2.9149,0,0,2.9436,2.9404,2.9411,2.9389,2.9368,2.9376,2.93,2.931,2.9316,2.9235,2.9254,2.923,2.9202,2.9237,2.9251,2.922,2.9323,2.928,2.929,2.929,2.9311,2.9327,2.9341,2.9154,2.9153,2.9152,0,0,2.9539,2.9515,2.9542,2.9524,2.9493,2.9457,2.9465,2.9421,2.9402,2.9421,2.936,2.9366,2.9365,2.9348,2.934,2.944,2.9394,2.944,2.9512,2.9536,2.955,2.9561,2.9598,2.9611,2.9447,2.9447,2.9448,0,2.9611,2.9619,2.9562,2.9577,2.957,2.9497,2.9526,2.951,2.9481,2.9478,2.9444,2.9442,2.9418,2.9449,2.9474,2.9469,2.9476,2.9444,2.9552,2.9563,2.9573,2.9607,2.9621,2.9453,2.9453,2.9452,2.9451,0,2.9709,2.9716,2.9742,2.9716,2.9711,2.9733,2.9681,2.9684,2.9646,2.9615,2.9636,2.9605,2.9594,2.9598,2.9562,2.9625,2.9607,2.9564,2.9503,2.9596,2.9627,2.9639,2.9462,2.946,2.9458,2.9456,0,0,2.9873,2.9816,2.9827,2.9814,2.9777,2.9781,2.9801,2.979,2.9794,2.9777,2.9792,2.9794,2.9754,2.9745,2.9706,2.9727,2.981,2.9681,2.968,2.9707,2.9879,2.9912,2.9928,2.978,2.9782,2.9784,2.9882,0,2.9969,2.9997,2.9948,2.9989,2.9995,2.9928,2.9945,2.9924,2.9896,2.9898,2.9867,2.9869,2.9816,2.981,2.9829,2.9796,2.9844,2.9788,2.9794,2.9795,2.9803,2.9944,2.9978,3.0072,2.9893,2.9895,2.9897,0,3.0083,3.0072,3.0114,3.0075,3.0076,3.0092,3.0079,3.0082,3.0058,3.0036,3.0027,2.9982,2.9999,2.9942,2.9966,2.9929,2.9929,2.9914,2.9916,2.9915,2.9851,2.9947,3.01,3.0115,2.9915,2.9914,2.9912,0,3.02,3.0195,3.022,3.0211,3.0167,3.018,3.0162,3.0135,3.0133,3.0122,3.012,3.0112,3.0107,3.0103,3.0057,3.0019,3.0087,3.0025,3.007,3.0072,3.0087,3.0087,3.0243,3.0087,3.0087,3.0087,3.0087,0,3.0312,3.034,3.0271,3.0287,3.0317,3.0261,3.0293,3.0268,3.0246,3.0256,3.0197,3.0208,3.0147,3.0152,3.0116,3.0143,3.0141,3.0124,3.0115,3.013,3.0132,3.0128,3.0121,3.009,3.009,3.0089,3.0088,0,3.0446,3.0401,3.0424,3.038,3.037,3.0395,3.0358,3.0371,3.034,3.0353,3.0354,3.0304,3.0307,3.0261,3.0255,3.0231,3.0274,3.0253,3.0282,3.0275,3.0323,3.0319,3.0483,3.0502,3.0334,3.0336,3.0337,0,3.052,3.0541,3.05,3.0502,3.0488,3.0492,3.049,3.0436,3.0436,3.0411,3.0428,3.0426,3.0421,3.043,3.0394,3.039,3.0368,3.0426,3.0367,3.0382,3.037,3.0369,3.0371,3.0438,3.044,3.0442,3.0443,0,3.0657,3.0634,3.0632,3.0624,3.0622,3.0612,3.0599,3.0605,3.0546,3.055,3.0552,3.0549,3.0543,3.0542,3.0532,3.0514,3.047,3.0462,3.0472,3.0488,3.0504,3.0497,3.0316,3.0458,3.0457,3.0456,3.0455,3.0454,3.0764,3.0779,3.0753,3.0754,3.0738,3.0728,3.0738,3.0709,3.0709,3.07,3.0669,3.0677,3.0655,3.0636,3.0623,3.063,3.0601,3.0616,3.062,3.0624,3.0633,3.0504,3.0627,3.0627,3.0626,3.0626,3.0626,0,3.0898,3.0878,3.0879,3.0863,3.0864,3.0822,3.0806,3.0809,3.0817,3.08,3.0797,3.0801,3.0801,3.0766,3.0762,3.0774,3.0754,3.0775,3.0773,3.077,3.0658,3.065,3.0792,3.0792,3.0791,3.0791,3.0791,3.0791,3.0968,3.0992,3.0967,3.0984,3.0964,3.0971,3.0966,3.0957,3.0943,3.095,3.0949,3.0926,3.0903,3.0897,3.0895,3.0885,3.0887,3.0915,3.0898,3.0794,3.0778,3.0763,3.0755,3.0916,3.0916,3.101,3.1011,3.1011]},{"header":{"parameterUnit":"m.s-1","parameterCategory":1,"la1":30.2991,"la2":30.254,"lo1":-89.0895,"lo2":-89.0444,"dy":0.0017,"dx":0.0017,"nx":28,"ny":28,"refTime":"2025-01-19T03:00:00:Z","depth":0,"parameterNumber":3,"parameterNumberName":"V-component_of_WINDS"},"data":[0,0,0,0,0,0,0,0,0,0,0,0,0,0,0,0,0,0,0,0,0,0,0,0,0,0,0,0,0,0,0,0,0,0,0,0,0,0,0,0,0,0,0,0,0,0,0,0,0,0,0,0,0,0,0,0,0,0,-0.0977,-0.0974,0,-0.0665,-0.0661,-0.0658,-0.0568,-0.057,-0.0572,-0.0574,-0.0248,-0.0238,-0.0228,0,0,0,0,0,0,0,0,0,0,0,0,0,-0.1495,-0.1486,-0.0978,-0.0974,-0.097,-0.0665,-0.0661,-0.0657,-0.0568,-0.057,-0.0572,-0.0574,-0.0251,-0.0239,-0.0227,0,0,0,0,0,0,0,0,0,0,0,0,0,-0.1235,-0.1483,-0.0978,-0.0889,-0.0878,-0.0666,-0.0661,-0.0656,-0.0568,-0.057,-0.0573,-0.0575,-0.0255,-0.024,-0.0225,-0.0078,0,0,-0.0178,-0.0171,0,0,0,0,0,0,0,0,-0.125,-0.1216,-0.0906,-0.0895,-0.0882,-0.0658,-0.0724,-0.0462,-0.0567,-0.0685,-0.0574,-0.0577,-0.0382,-0.0356,-0.0292,-0.0063,-0.0049,-0.0177,-0.0167,-0.0161,-0.0156,0,0,0,0,0,0,0,-0.1268,-0.1229,-0.0854,-0.0902,-0.0887,-0.0864,-0.083,-0.0674,-0.0523,-0.0675,-0.0668,-0.0633,-0.0376,-0.0307,-0.0284,-0.0044,-0.0177,-0.0163,-0.0154,-0.0148,0.0319,0.0322,0,0,0,0,0,0,-0.1302,-0.1244,-0.0864,-0.0844,-0.1076,-0.0852,-0.0814,-0.0727,-0.0524,-0.0496,-0.0631,-0.063,-0.0332,-0.0302,-0.0272,-0.0087,-0.0161,-0.0146,-0.0137,0.0316,0.0319,0.0323,0,0,0,0,0,0,-0.1313,-0.1269,-0.0876,-0.1042,-0.0991,-0.0841,-0.0744,-0.072,-0.0651,-0.0491,-0.0463,-0.0588,-0.0333,-0.0293,-0.0128,-0.0075,-0.0139,-0.0125,0.0312,0.0317,0.0321,0.0282,0,0,0,0,0,0,-0.1328,-0.1273,-0.1216,-0.1042,-0.0982,-0.0738,-0.0741,-0.0712,-0.0625,-0.0621,-0.0443,-0.0416,-0.0332,-0.0151,-0.0113,-0.0055,-0.0113,0.0308,0.0314,0.032,0.028,0.0285,0.029,0,0,0,0,0,-0.1347,-0.1238,-0.1214,-0.1168,-0.0908,-0.0736,-0.0701,-0.0608,-0.0621,-0.0563,-0.046,-0.0422,-0.0088,-0.0135,-0.0091,-0.0028,0.0305,0.0312,0.0319,0.0277,0.0284,0.029,0,0,0,0,0,0,-0.1407,-0.1213,-0.1184,-0.1015,-0.0893,-0.0721,-0.0644,-0.0603,-0.0473,-0.0474,-0.0362,-0.0322,-0.0165,-0.008,-0.0136,0.0124,0.011,0.0126,0.0063,0.007,0.0075,0.0052,-0.01,0,0,0,0,0,-0.1401,-0.1279,-0.1115,-0.0982,-0.0923,-0.0794,-0.0715,-0.0655,-0.0522,-0.0469,-0.0355,-0.0227,-0.0093,-0.0006,0.0126,0.0292,0.0331,0.0357,0.0362,0.0365,0.0378,0.0471,0.0484,0.0346,0.0346,0.0346,0,0,-0.1386,-0.1266,-0.1194,-0.0991,-0.0889,-0.0764,-0.0751,-0.0618,-0.0524,-0.0448,-0.0286,-0.0198,-0.0047,0.0118,0.0197,0.0194,0.0425,0.0374,0.0376,0.0388,0.048,0.0492,0.0504,0.0351,0.035,0.0349,0,0,-0.1296,-0.1192,-0.1071,-0.097,-0.0817,-0.0733,-0.0704,-0.0538,-0.0478,-0.0314,-0.0255,-0.0141,0.0087,0.0191,0.0274,0.0399,0.0439,0.0439,0.0467,0.0556,0.0566,0.0577,0.0621,0.0635,0.0451,0.0451,0.0451,0,-0.1297,-0.1107,-0.1013,-0.0884,-0.0797,-0.0726,-0.0603,-0.0509,-0.0319,-0.026,-0.0267,0.0019,0.0126,0.0315,0.0345,0.041,0.0447,0.042,0.0557,0.0568,0.0579,0.0623,0.0639,0.045,0.045,0.0451,0.0451,0,-0.1116,-0.0986,-0.0906,-0.0728,-0.0632,-0.0506,-0.0393,-0.0307,-0.0256,-0.0171,-0.0006,0.0123,0.0282,0.0331,0.0384,0.0528,0.0522,0.0534,0.0523,0.059,0.0632,0.065,0.0449,0.0449,0.045,0.045,0,0,-0.1051,-0.0826,-0.0799,-0.0718,-0.0546,-0.0443,-0.0315,-0.0162,-0.0091,0.0036,0.0147,0.0336,0.0348,0.0441,0.0506,0.0584,0.0673,0.0588,0.0593,0.0599,0.0839,0.0829,0.0847,0.07,0.0703,0.0706,0.0827,0,-0.0939,-0.0709,-0.0623,-0.0434,-0.0313,-0.0246,-0.0134,-0.0017,0.0065,0.018,0.0271,0.0403,0.0409,0.0465,0.0545,0.0645,0.0723,0.0638,0.0805,0.0809,0.0765,0.0869,0.086,0.0968,0.0844,0.0847,0.0849,0,-0.0776,-0.0651,-0.0452,-0.0297,-0.0243,-0.0144,0.0001,0.011,0.0245,0.0298,0.04,0.0459,0.0596,0.0573,0.0763,0.0703,0.0776,0.0835,0.0841,0.0862,0.0834,0.0893,0.1005,0.1021,0.0876,0.0874,0.0872,0,-0.075,-0.0531,-0.0384,-0.0317,-0.0132,-0.0065,0.0015,0.0147,0.0232,0.0359,0.0416,0.0557,0.0636,0.0744,0.084,0.0815,0.1021,0.1006,0.107,0.1067,0.1112,0.1108,0.1237,0.1157,0.1157,0.1156,0.1156,0,-0.0633,-0.0514,-0.037,-0.0279,-0.0144,-0.0046,0.0086,0.0171,0.0286,0.0395,0.0462,0.0563,0.0682,0.0799,0.0874,0.1019,0.1054,0.1102,0.1121,0.1097,0.1091,0.1148,0.1143,0.1161,0.116,0.1159,0.1158,0,-0.058,-0.0478,-0.0314,-0.0154,-0.0112,-0.0019,0.0118,0.0209,0.0291,0.0428,0.0466,0.0597,0.0736,0.0841,0.1024,0.1074,0.1229,0.1249,0.1183,0.1193,0.125,0.1243,0.1421,0.145,0.1349,0.1349,0.135,0,-0.0511,-0.0418,-0.025,-0.0174,-0.0095,0.0028,0.0114,0.0213,0.03,0.0458,0.053,0.0673,0.0794,0.1014,0.1126,0.1265,0.1289,0.1342,0.1311,0.1283,0.1291,0.1284,0.1294,0.1346,0.1347,0.1347,0.1348,0,-0.0401,-0.0356,-0.0236,-0.0098,0.0002,0.0116,0.0231,0.029,0.041,0.0504,0.0647,0.074,0.0923,0.1066,0.1215,0.1299,0.1344,0.1356,0.1378,0.1355,0.1313,0.1337,0.1195,0.1352,0.1352,0.1352,0.1351,0.1351,-0.0337,-0.0252,-0.0122,0.001,0.0106,0.0211,0.0304,0.0396,0.0516,0.0672,0.0723,0.087,0.1,0.1205,0.129,0.1407,0.1407,0.1439,0.1448,0.1454,0.1452,0.1293,0.1434,0.1434,0.1434,0.1434,0.1434,0,-0.0223,-0.0137,-0.0017,0.014,0.0243,0.0273,0.0401,0.0486,0.0614,0.073,0.0846,0.1009,0.1146,0.1267,0.1409,0.1479,0.1503,0.1513,0.151,0.1529,0.1444,0.141,0.1491,0.1491,0.1491,0.1491,0.1491,0.1491,-0.0152,-0.0007,0.0052,0.0245,0.0331,0.0474,0.0544,0.0641,0.0735,0.0912,0.1025,0.1102,0.1221,0.1372,0.1499,0.1531,0.1581,0.1586,0.1623,0.1542,0.1535,0.1528,0.1497,0.1596,0.1596,0.1699,0.17,0.17]}]]